Prestonsburg, KY

5:18 PM EDT on June 24, 2018 (GMT -0400)
Prestonsburg

Weather History for KK22 - January, 2013

Change the Weather History Date:

Thursday, January 31, 2013

  Actual Average (WUND) Record (WUND)
Temperature  
Mean Temperature 33 °F -  
Max Temperature 38 °F - - (-1)
Min Temperature 28 °F - - (-1)
Degree Days  
Heating Degree Days 32    
Moisture  
Dew Point 23 °F    
Average Humidity 71    
Maximum Humidity 97    
Minimum Humidity 58    
Precipitation  
Precipitation 0.00 in - - ()
Sea Level Pressure  
Sea Level Pressure 29.85 in    
Wind  
Wind Speed 14 mph (West)    
Max Wind Speed 21 mph    
Max Gust Speed 38 mph    
Visibility 9 miles    
Events Snow    
Averages and records for this station are not official NWS values.
T = Trace of Precipitation, MM = Missing Value Source: NWS Daily Summary

Daily Weather History Graph

Daily Weather History Graph

Search for Another Location

Airport or City:

Astronomy

Jan. 31, 2013 Rise Set
Actual Time 7:35 AM EST 5:53 PM EST
Civil Twilight 7:07 AM EST 6:21 PM EST
Nautical Twilight 6:36 AM EST 6:52 PM EST
Astronomical Twilight 6:05 AM EST 7:23 PM EST
Moon 10:47 PM EST (1/31) 9:40 AM EST (1/31)
Length of Visible Light 11h 13m
Length of Day
10h 18m
Waning Gibbous, 80% of the Moon is Illuminated
Jan 31
Waning Gibbous
Feb 3
Last Quarter
Feb 10
New
Feb 17
First Quarter
Feb 25
Full

Hourly Weather History & Observations

Time (EST) Temp. Windchill Dew Point Humidity Pressure Visibility Wind Dir Wind Speed Gust Speed Precip Events Conditions
12:15 AM 38.1 °F 28.8 °F 33.8 °F 84% 29.56 in 10.0 mi West 17.3 mph 38.0 mph N/A   Overcast
12:35 AM 37.4 °F 27.2 °F 32.5 °F 83% 29.59 in 10.0 mi West 19.6 mph 32.2 mph N/A   Overcast
12:55 AM 37.4 °F 29.3 °F 32.0 °F 81% 29.60 in 10.0 mi West 12.7 mph 26.5 mph N/A   Overcast
1:15 AM 36.7 °F 26.3 °F 30.0 °F 77% 29.62 in 10.0 mi WNW 19.6 mph 33.4 mph N/A   Overcast
1:35 AM 36.0 °F 26.0 °F 28.0 °F 73% 29.63 in 10.0 mi West 17.3 mph 31.1 mph N/A   Mostly Cloudy
1:55 AM 35.6 °F 25.2 °F 27.5 °F 72% 29.65 in 10.0 mi West 18.4 mph 28.8 mph N/A   Overcast
2:15 AM 34.3 °F 24.2 °F 25.7 °F 71% 29.68 in 10.0 mi West 16.1 mph 33.4 mph N/A   Overcast
2:35 AM 34.2 °F 24.4 °F 23.7 °F 66% 29.68 in 10.0 mi West 15.0 mph 26.5 mph N/A   Overcast
2:55 AM 33.6 °F 24.1 °F 24.6 °F 70% 29.69 in 10.0 mi WNW 13.8 mph 27.6 mph N/A   Overcast
3:15 AM 32.9 °F 22.0 °F 25.0 °F 73% 29.71 in 10.0 mi West 17.3 mph 32.2 mph N/A   Overcast
3:35 AM 32.5 °F 21.2 °F 23.0 °F 68% 29.72 in 10.0 mi West 18.4 mph 28.8 mph N/A   Overcast
3:55 AM 32.4 °F 22.5 °F 23.9 °F 71% 29.73 in 10.0 mi West 13.8 mph 23.0 mph N/A   Overcast
4:15 AM 32.0 °F 19.8 °F 24.4 °F 74% 29.73 in 10.0 mi West 20.7 mph 28.8 mph N/A   Overcast
4:35 AM 32.0 °F 25.6 °F 24.1 °F 73% 29.74 in 10.0 mi West 6.9 mph 21.9 mph N/A   Overcast
4:55 AM 32.0 °F 22.1 °F 23.9 °F 72% 29.75 in 10.0 mi West 13.8 mph 31.1 mph N/A Snow Light Snow
5:15 AM 32.0 °F 23.0 °F 22.5 °F 68% 29.76 in 10.0 mi West 11.5 mph 25.3 mph N/A   Overcast
5:35 AM 32.0 °F 22.1 °F 22.5 °F 68% 29.77 in 10.0 mi West 13.8 mph 33.4 mph N/A   Overcast
5:55 AM 31.8 °F 20.2 °F 20.7 °F 63% 29.78 in 10.0 mi West 18.4 mph 29.9 mph N/A   Overcast
6:15 AM 31.1 °F 20.5 °F 20.1 °F 64% 29.79 in 10.0 mi West 15.0 mph 28.8 mph N/A   Overcast
6:35 AM 30.9 °F 21.7 °F 19.6 °F 63% 29.79 in 10.0 mi WNW 11.5 mph 21.9 mph N/A   Overcast
7:15 AM 30.2 °F 19.3 °F 16.9 °F 58% 29.82 in 10.0 mi West 15.0 mph 29.9 mph N/A   Overcast
7:55 AM 29.8 °F 18.4 °F 17.8 °F 61% 29.85 in 10.0 mi West 16.1 mph 23.0 mph N/A   Overcast
8:15 AM 29.7 °F 19.6 °F 18.5 °F 63% 29.85 in 10.0 mi West 12.7 mph 17.3 mph N/A   Overcast
8:35 AM 29.3 °F 19.6 °F 19.4 °F 67% 29.87 in 7.0 mi West 11.5 mph 20.7 mph N/A Snow Light Snow
8:55 AM 28.8 °F 19.0 °F 21.6 °F 74% 29.88 in 5.0 mi West 11.5 mph 17.3 mph N/A Snow Light Snow
9:15 AM 29.1 °F 16.7 °F 21.7 °F 74% 29.89 in 7.0 mi West 18.4 mph 24.2 mph N/A Snow Light Snow
9:35 AM 29.7 °F 17.4 °F 20.3 °F 68% 29.90 in 10.0 mi West 18.4 mph 23.0 mph N/A   Overcast
9:55 AM 29.7 °F 17.8 °F 20.8 °F 70% 29.91 in 10.0 mi West 17.3 mph 24.2 mph N/A Snow Light Snow
10:15 AM 30.0 °F 20.5 °F 21.0 °F 69% 29.91 in 10.0 mi WSW 11.5 mph 20.7 mph N/A   Overcast
10:35 AM 30.6 °F 18.6 °F 20.1 °F 65% 29.92 in 10.0 mi West 18.4 mph 25.3 mph N/A   Overcast
10:55 AM 30.7 °F 23.3 °F 20.3 °F 65% 29.93 in 10.0 mi West 8.1 mph 19.6 mph N/A   Overcast
11:15 AM 30.2 °F 20.8 °F 20.3 °F 67% 29.93 in 10.0 mi West 11.5 mph 21.9 mph N/A Snow Light Snow
11:35 AM 30.6 °F 21.8 °F 21.0 °F 68% 29.93 in 10.0 mi West 10.4 mph 16.1 mph N/A Snow Light Snow
11:55 AM 30.7 °F 22.6 °F 21.4 °F 68% 29.93 in 10.0 mi West 9.2 mph 16.1 mph N/A Snow Light Snow
12:15 PM 29.1 °F 20.0 °F 23.9 °F 81% 29.93 in 10.0 mi WNW 10.4 mph - N/A   Overcast
12:35 PM 30.0 °F 22.4 °F 23.9 °F 78% 29.94 in 7.0 mi WNW 8.1 mph - N/A Snow Light Snow
12:55 PM 28.6 °F 18.7 °F 23.9 °F 83% 29.93 in 1.8 mi West 11.5 mph 21.9 mph N/A Snow Light Snow
1:15 PM 29.3 °F 21.5 °F 24.3 °F 81% 29.93 in 5.0 mi West 8.1 mph 20.7 mph N/A Snow Light Snow
1:35 PM 28.6 °F 17.2 °F 25.3 °F 88% 29.94 in 0.8 mi West 15.0 mph 21.9 mph N/A Snow Snow
1:55 PM 28.4 °F 20.4 °F 26.2 °F 92% 29.94 in 1.2 mi West 8.1 mph - N/A Snow Light Snow
2:15 PM 30.9 °F 21.7 °F 25.5 °F 80% 29.94 in 10.0 mi WSW 11.5 mph 19.6 mph N/A   Mostly Cloudy
2:35 PM 30.9 °F 20.2 °F 22.8 °F 72% 29.94 in 7.0 mi West 15.0 mph 24.2 mph N/A Snow Light Snow
2:55 PM 32.5 °F 25.5 °F 23.0 °F 68% 29.94 in 10.0 mi West 8.1 mph - N/A   Overcast
3:15 PM 32.2 °F 23.8 °F 20.8 °F 63% 29.94 in 10.0 mi WSW 10.4 mph 17.3 mph N/A   Overcast
3:35 PM 32.0 °F 23.0 °F 20.1 °F 62% 29.93 in 10.0 mi West 11.5 mph 20.7 mph N/A   Overcast
3:55 PM 32.0 °F 23.6 °F 20.1 °F 62% 29.94 in 10.0 mi West 10.4 mph 18.4 mph N/A   Overcast
4:15 PM 32.0 °F 21.6 °F 20.1 °F 62% 29.94 in 10.0 mi WSW 15.0 mph 19.6 mph N/A   Overcast
4:35 PM 32.0 °F 24.2 °F 19.8 °F 61% 29.95 in 10.0 mi West 9.2 mph 17.3 mph N/A   Overcast
4:55 PM 32.0 °F 24.8 °F 20.1 °F 62% 29.95 in 10.0 mi WSW 8.1 mph 17.3 mph N/A   Overcast
5:15 PM 32.0 °F 24.8 °F 20.3 °F 62% 29.94 in 10.0 mi WSW 8.1 mph 16.1 mph N/A   Overcast
5:35 PM 32.0 °F 26.4 °F 20.7 °F 63% 29.94 in 10.0 mi West 5.8 mph - N/A   Overcast
5:55 PM 32.0 °F 24.8 °F 21.0 °F 64% 29.93 in 10.0 mi WSW 8.1 mph - N/A   Overcast
6:15 PM 32.0 °F 26.4 °F 20.8 °F 63% 29.93 in 10.0 mi WSW 5.8 mph - N/A   Overcast
6:35 PM 32.0 °F 25.6 °F 21.4 °F 65% 29.93 in 10.0 mi WSW 6.9 mph - N/A   Overcast
7:15 PM 32.0 °F 27.5 °F 22.1 °F 67% 29.93 in 10.0 mi WSW 4.6 mph - N/A   Overcast
7:35 PM 32.0 °F 27.5 °F 22.3 °F 67% 29.93 in 10.0 mi SW 4.6 mph - N/A   Overcast
7:55 PM 32.0 °F 27.5 °F 22.5 °F 68% 29.93 in 10.0 mi SW 4.6 mph - N/A   Overcast
8:15 PM 32.0 °F 27.5 °F 22.6 °F 68% 29.92 in 10.0 mi SW 4.6 mph - N/A   Overcast
8:35 PM 32.4 °F 25.3 °F 22.5 °F 67% 29.93 in 10.0 mi WSW 8.1 mph - N/A   Overcast
8:55 PM 32.9 °F 26.7 °F 22.6 °F 66% 29.92 in 10.0 mi WSW 6.9 mph - N/A   Overcast
9:15 PM 33.3 °F 26.4 °F 22.8 °F 66% 29.91 in 10.0 mi WSW 8.1 mph - N/A   Overcast
9:35 PM 33.8 °F 25.3 °F 23.9 °F 67% 29.92 in 10.0 mi WSW 11.5 mph 19.6 mph N/A   Overcast
9:55 PM 32.9 °F 26.7 °F 25.9 °F 75% 29.91 in 7.0 mi WSW 6.9 mph - N/A Snow Light Snow
10:15 PM 32.0 °F 23.6 °F 28.4 °F 87% 29.89 in 3.0 mi WSW 10.4 mph - N/A Snow Light Snow
10:35 PM 31.6 °F 26.0 °F 29.7 °F 92% 29.90 in 2.5 mi WSW 5.8 mph - N/A Snow Light Snow
10:55 PM 31.1 °F 24.5 °F 30.0 °F 96% 29.89 in 1.5 mi SW 6.9 mph - N/A Snow Light Snow
11:15 PM 31.1 °F 25.4 °F 30.2 °F 96% 29.87 in 2.5 mi SW 5.8 mph - N/A Snow Light Snow
11:35 PM 31.5 °F 24.2 °F 30.7 °F 97% 29.87 in 2.5 mi SW 8.1 mph - N/A Snow Light Snow